Location: Sudbury
(46.5221°N, 80.9530°W)
Time: 23:39:56
(UTC-04:00)

ISS - Visible Passes

Search period start: 25 September 2017 00:00
Search period end: 05 October 2017 00:00
Orbit: 401 x 407 km, 51.6° (Epoch: 26 September)

Date Brightness Start Highest point End Pass type
(mag) Time Alt. Az. Time Alt. Az. Time Alt. Az.
25 Sep -1.6 19:55:30 10° SSE 19:56:35 11° SE 19:57:35 10° ESE visible
25 Sep -1.5 21:29:15 10° SW 21:30:17 19° SW 21:30:17 19° SW visible
26 Sep -3.4 20:37:09 10° SW 20:40:14 39° SE 20:40:35 38° SE visible
27 Sep -2.5 19:45:21 10° SSW 19:48:00 23° SE 19:50:42 10° E visible
27 Sep -2.7 21:21:00 10° WSW 21:23:22 42° W 21:23:22 42° W visible
28 Sep -3.9 20:28:36 10° WSW 20:31:52 81° SSE 20:33:19 31° ENE visible
28 Sep -0.5 22:05:31 10° WNW 22:05:59 13° WNW 22:05:59 13° WNW visible
29 Sep -3.4 19:36:23 10° SW 19:39:32 48° SE 19:42:42 10° ENE visible
29 Sep -2.7 21:12:54 10° W 21:15:48 41° NNW 21:15:48 41° NNW visible
30 Sep -3.4 20:20:20 10° WSW 20:23:34 58° NNW 20:25:32 21° NE visible
30 Sep -0.6 21:57:26 10° WNW 21:58:11 15° WNW 21:58:11 15° WNW visible
01 Oct -3.8 19:27:51 10° WSW 19:31:07 87° NNW 19:34:25 10° ENE visible
01 Oct -2.5 21:04:50 10° WNW 21:07:50 34° N 21:07:50 34° N visible
02 Oct -2.7 20:12:12 10° W 20:15:18 39° NNW 20:17:26 17° NE visible
02 Oct -0.7 21:49:13 10° WNW 21:50:04 16° NW 21:50:04 16° NW visible
03 Oct -2.4 20:56:40 10° WNW 20:59:37 31° N 20:59:37 31° N visible
04 Oct -2.5 20:04:03 10° WNW 20:07:03 32° N 20:09:09 16° NE visible
04 Oct -0.9 21:40:50 10° WNW 21:41:47 17° NW 21:41:47 17° NW visible
